Weather History for Jefferson, NC

Change the Weather History Date:

Wednesday, December 29, 2004

  Actual Average Record
Temperature  
Mean Temperature 45 °F -  
Max Temperature 55 °F 46 °F 68 °F (1984)
Min Temperature 35 °F 23 °F 8 °F (1978)
Degree Days  
Heating Degree Days 20    
Moisture  
Dew Point 25 °F    
Average Humidity 48    
Maximum Humidity 66    
Minimum Humidity 13    
Precipitation  
Precipitation 0.00 in - - ()
Sea Level Pressure  
Sea Level Pressure 30.30 in    
Wind  
Wind Speed 8 mph (West)    
Max Wind Speed 24 mph    
Max Gust Speed 32 mph    
Visibility 10 miles    
Events      
Averages and records for this station are not official NWS values.
T = Trace of Precipitation, MM = Missing Value Source: NWS Daily Summary

Daily Weather History Graph

Daily Weather History Graph

Search for Another Location

Airport:

Trip Planner

Search our weather history database for the weather conditions in past years. The results will help you decide how hot, cold, wet, or windy it might be!

Date:

Astronomy

Dec. 29, 2004 Rise Set
Actual Time 7:36 AM EST 5:19 PM EST
Civil Twilight 7:08 AM EST 5:47 PM EST
Nautical Twilight 6:35 AM EST 6:20 PM EST
Astronomical Twilight 6:04 AM EST 6:51 PM EST
Moon 8:04 PM EST (12/29) 10:00 AM EST (12/29)
Length of Visible Light 10h 39m
Length of Day
9h 42m
Waning Gibbous, 92% of the Moon is Illuminated
Dec 29
Waning Gibbous
Jan 3
Last Quarter
Jan 10
New
Jan 17
First Quarter
Jan 25
Full

Hourly Weather History & Observations

Time (EST) Temp. Windchill Dew Point Humidity Pressure Visibility Wind Dir Wind Speed Gust Speed Precip Events Conditions
12:00 AM 35.6 °F - 17.6 °F 48% 30.33 in 10.0 mi Calm Calm - N/A   Clear
12:20 AM 35.6 °F - 17.6 °F 48% 30.32 in 10.0 mi Calm Calm - N/A   Clear
12:40 AM 35.6 °F - 17.6 °F 48% 30.32 in 10.0 mi Calm Calm - N/A   Clear
1:00 AM 35.6 °F - 17.6 °F 48% 30.31 in 10.0 mi Calm Calm - N/A   Clear
1:20 AM 35.6 °F - 17.6 °F 48% 30.31 in 10.0 mi Calm Calm - N/A   Clear
1:40 AM 35.6 °F 32.8 °F 17.6 °F 48% 30.30 in 10.0 mi SSE 3.5 mph - N/A   Clear
2:00 AM 37.4 °F 34.9 °F 17.6 °F 45% 30.30 in 10.0 mi ESE 3.5 mph - N/A   Clear
2:20 AM 41.0 °F - 14.0 °F 33% 30.29 in 10.0 mi Calm Calm - N/A   Clear
2:40 AM 41.0 °F - 12.2 °F 31% 30.29 in 10.0 mi Calm Calm - N/A   Clear
3:00 AM 42.8 °F 38.6 °F 8.6 °F 25% 30.29 in 10.0 mi West 6.9 mph - N/A   Clear
3:20 AM 46.4 °F 40.7 °F 3.2 °F 17% 30.29 in 10.0 mi WNW 12.7 mph - N/A   Clear
3:40 AM 48.2 °F - -0.4 °F 13% 30.28 in 10.0 mi West 18.4 mph 25.3 mph N/A   Clear
4:00 AM 46.4 °F 39.0 °F -0.4 °F 14% 30.28 in 10.0 mi West 19.6 mph 26.5 mph N/A   Clear
4:20 AM 46.4 °F 39.2 °F -0.4 °F 14% 30.28 in 10.0 mi West 18.4 mph 27.6 mph N/A   Clear
4:40 AM 46.4 °F 38.1 °F -0.4 °F 14% 30.28 in 10.0 mi West 24.2 mph 29.9 mph N/A   Clear
5:00 AM 46.4 °F 38.5 °F 1.4 °F 16% 30.28 in 10.0 mi West 21.9 mph 28.8 mph N/A   Clear
5:20 AM 44.6 °F 35.7 °F 3.2 °F 18% 30.28 in 10.0 mi West 24.2 mph 32.2 mph N/A   Clear
6:00 AM 44.6 °F 35.7 °F 10.4 °F 25% 30.29 in 10.0 mi West 24.2 mph 32.2 mph N/A   Clear
6:40 AM 42.8 °F 34.3 °F 15.8 °F 34% 30.30 in 10.0 mi West 19.6 mph 32.2 mph N/A   Clear
7:00 AM 42.8 °F 34.5 °F 17.6 °F 36% 30.30 in 10.0 mi West 18.4 mph 24.2 mph N/A   Clear
7:20 AM 42.8 °F 35.8 °F 21.2 °F 42% 30.31 in 10.0 mi West 13.8 mph 20.7 mph N/A   Clear
7:40 AM 42.8 °F 38.0 °F 24.8 °F 49% 30.32 in 10.0 mi WNW 8.1 mph 23.0 mph N/A   Clear
8:00 AM 42.8 °F 35.4 °F 26.6 °F 53% 30.32 in 10.0 mi WNW 15.0 mph 19.6 mph N/A   Clear
8:20 AM 42.8 °F 36.2 °F 26.6 °F 53% 30.32 in 10.0 mi WNW 12.7 mph 21.9 mph N/A   Clear
9:00 AM 42.8 °F 36.6 °F 28.4 °F 57% 30.33 in 10.0 mi WNW 11.5 mph 20.7 mph N/A   Clear
9:20 AM 44.6 °F 37.8 °F 28.4 °F 53% 30.33 in 10.0 mi West 15.0 mph 19.6 mph N/A   Clear
9:40 AM 44.6 °F 38.4 °F 28.4 °F 53% 30.33 in 10.0 mi WNW 12.7 mph 21.9 mph N/A   Clear
10:00 AM 44.6 °F 38.4 °F 30.2 °F 57% 30.33 in 10.0 mi WNW 12.7 mph 17.3 mph N/A   Clear
10:20 AM 44.6 °F 38.1 °F 30.2 °F 57% 30.33 in 10.0 mi WNW 13.8 mph 19.6 mph N/A   Clear
10:40 AM 44.6 °F 38.1 °F 30.2 °F 57% 30.33 in 10.0 mi WNW 13.8 mph 23.0 mph N/A   Clear
11:00 AM 48.2 °F - 32.0 °F 54% 30.33 in 10.0 mi West 12.7 mph 20.7 mph N/A   Clear
11:20 AM 48.2 °F - 33.8 °F 58% 30.32 in 10.0 mi West 18.4 mph 23.0 mph N/A   Clear
11:40 AM 50.0 °F - 33.8 °F 54% 30.32 in 10.0 mi WNW 10.4 mph 19.6 mph N/A   Clear
12:00 PM 50.0 °F - 33.8 °F 54% 30.31 in 10.0 mi WNW 18.4 mph 27.6 mph N/A   Clear
12:20 PM 50.0 °F - 33.8 °F 54% 30.30 in 10.0 mi WNW 13.8 mph 24.2 mph N/A   Clear
12:40 PM 50.0 °F - 33.8 °F 54% 30.30 in 10.0 mi West 9.2 mph - N/A   Clear
1:00 PM 51.8 °F - 35.6 °F 54% 30.28 in 10.0 mi West 10.4 mph 17.3 mph N/A   Scattered Clouds
1:20 PM 55.4 °F - 37.4 °F 51% 30.28 in 10.0 mi West 15.0 mph 19.6 mph N/A   Scattered Clouds
2:00 PM 55.4 °F - 37.4 °F 51% 30.27 in 10.0 mi West 13.8 mph 20.7 mph N/A   Scattered Clouds
2:20 PM 55.4 °F - 37.4 °F 51% 30.27 in 10.0 mi West 10.4 mph 17.3 mph N/A   Scattered Clouds
2:41 PM 55.4 °F - 37.4 °F 51% 30.27 in 10.0 mi West 12.7 mph 23.0 mph N/A   Mostly Cloudy
3:00 PM 51.8 °F - 37.4 °F 58% 30.28 in 10.0 mi West 10.4 mph 25.3 mph N/A   Overcast
3:21 PM 51.8 °F - 37.4 °F 58% 30.27 in 10.0 mi West 16.1 mph 23.0 mph N/A   Overcast
3:40 PM 51.8 °F - 37.4 °F 58% 30.27 in 10.0 mi West 10.4 mph 24.2 mph N/A   Overcast
4:00 PM 51.8 °F - 39.2 °F 62% 30.28 in 10.0 mi West 9.2 mph 23.0 mph N/A   Overcast
4:20 PM 50.0 °F - 37.4 °F 62% 30.29 in 10.0 mi West 9.2 mph - N/A   Overcast
4:40 PM 50.0 °F - 37.4 °F 62% 30.29 in 10.0 mi WSW 4.6 mph 17.3 mph N/A   Overcast
5:00 PM 50.0 °F - 37.4 °F 62% 30.30 in 10.0 mi West 3.5 mph - N/A   Overcast
5:20 PM 48.2 °F - 37.4 °F 66% 30.30 in 10.0 mi West 9.2 mph 19.6 mph N/A   Overcast
5:40 PM 48.2 °F - 37.4 °F 66% 30.30 in 10.0 mi West 5.8 mph 9.2 mph N/A   Overcast
6:00 PM 48.2 °F - 37.4 °F 66% 30.30 in 10.0 mi WNW 5.8 mph - N/A   Overcast
6:21 PM 48.2 °F - 37.4 °F 66% 30.30 in 10.0 mi West 8.1 mph - N/A   Overcast
6:40 PM 48.2 °F - 37.4 °F 66% 30.31 in 10.0 mi WNW 4.6 mph - N/A   Overcast
7:00 PM 48.2 °F - 37.4 °F 66% 30.31 in 10.0 mi Calm Calm - N/A   Overcast
7:20 PM 48.2 °F - 37.4 °F 66% 30.31 in 10.0 mi WSW 6.9 mph - N/A   Overcast
7:40 PM 48.2 °F - 37.4 °F 66% 30.31 in 10.0 mi West 9.2 mph - N/A   Overcast
8:00 PM 48.2 °F - 37.4 °F 66% 30.32 in 10.0 mi West 6.9 mph 16.1 mph N/A   Overcast
8:21 PM 48.2 °F - 37.4 °F 66% 30.32 in 10.0 mi West 8.1 mph - N/A   Overcast
8:40 PM 48.2 °F - 37.4 °F 66% 30.31 in 10.0 mi West 5.8 mph - N/A   Overcast
9:00 PM 48.2 °F - 37.4 °F 66% 30.33 in 10.0 mi Calm Calm - N/A   Overcast
9:21 PM 46.4 °F 42.4 °F 37.4 °F 71% 30.33 in 10.0 mi West 8.1 mph - N/A   Overcast
9:40 PM 48.2 °F - 37.4 °F 66% 30.33 in 10.0 mi West 12.7 mph - N/A   Overcast
10:00 PM 46.4 °F 40.7 °F 37.4 °F 71% 30.33 in 10.0 mi West 12.7 mph 17.3 mph N/A   Overcast
10:21 PM 46.4 °F 42.4 °F 37.4 °F 71% 30.33 in 10.0 mi West 8.1 mph - N/A   Overcast
10:40 PM 46.4 °F 43.5 °F 37.4 °F 71% 30.34 in 10.0 mi West 5.8 mph - N/A   Overcast
11:00 PM 46.4 °F 43.5 °F 37.4 °F 71% 30.34 in 10.0 mi West 5.8 mph - N/A   Overcast
11:21 PM 46.4 °F 43.5 °F 37.4 °F 71% 30.35 in 10.0 mi WSW 5.8 mph - N/A   Overcast
11:40 PM 46.4 °F - 39.2 °F 76% 30.35 in 10.0 mi Calm Calm - N/A   Overcast